GW1885 Weather Reports


Display with metric or nautical units.
time (UTC)temp
F
wind
direction
speed
MPH
gust
MPH
rain 1hr
in
rain 24hr
in
rain mn
in
humidity
%
barometer
mb
20260503013504 55 179 4.0 7.0 0.00 0.00 0.00 59 1013.8
20260503013004 55 176 4.0 7.0 0.00 0.00 0.00 59 1013.8
20260503012526 55 171 4.0 7.0 0.00 0.00 0.00 59 1013.8
20260503012005 54 174 4.0 7.0 0.00 0.00 0.00 60 1014.0
20260503011504 55 177 4.0 6.0 0.00 0.00 0.00 61 1014.0
20260503011005 55 172 4.0 6.0 0.00 0.00 0.00 61 1013.9
20260503010504 55 167 4.0 6.0 0.00 0.00 0.00 60 1014.0
20260503010004 54 165 4.0 6.0 0.00 0.00 0.00 61 1013.9
20260503005504 54 164 4.0 6.0 0.00 0.00 0.00 62 1013.9
20260503005025 54 164 4.0 6.0 0.00 0.00 0.00 63 1014.1
20260503004504 54 164 4.0 7.0 0.00 0.00 0.00 62 1014.0
20260503004004 54 165 4.0 7.0 0.00 0.00 0.00 62 1014.2
20260503003525 54 166 4.0 7.0 0.00 0.00 0.00 62 1014.2
20260503003004 54 165 4.0 7.0 0.00 0.00 0.00 62 1014.1
20260503002525 54 166 4.0 7.0 0.00 0.00 0.00 62 1014.1
20260503002004 54 166 4.0 6.0 0.00 0.00 0.00 62 1014.2
20260503001504 54 166 4.0 6.0 0.00 0.00 0.00 62 1014.2
20260503001026 53 165 4.0 6.0 0.00 0.00 0.00 62 1014.5
20260503000505 53 164 4.0 6.0 0.00 0.00 0.00 63 1014.4
20260503000005 53 166 4.0 7.0 0.00 0.00 0.00 62 1014.4
20260502235504 55 171 4.0 7.0 0.00 0.00 0.00 59 1014.4
20260502235025 54 175 4.0 6.0 0.00 0.00 0.00 60 1014.4
20260502234504 54 176 4.0 7.0 0.00 0.00 0.00 60 1014.4
20260502234004 54 178 4.0 7.0 0.00 0.00 0.00 60 1014.3
20260502233504 54 180 4.0 6.0 0.00 0.00 0.00 61 1014.6
20260502233005 54 179 4.0 6.0 0.00 0.00 0.00 60 1014.5
20260502232504 54 178 4.0 6.0 0.00 0.00 0.00 60 1014.6
20260502232005 54 177 4.0 4.0 0.00 0.00 0.00 60 1014.7
20260502231504 54 176 4.0 6.0 0.00 0.00 0.00 60 1014.5
20260502231004 55 178 4.0 6.0 0.00 0.00 0.00 58 1014.8
20260502230526 55 176 4.0 6.0 0.00 0.00 0.00 58 1014.7
20260502230005 55 171 4.0 6.0 0.00 0.00 0.00 58 1014.7
20260502225504 55 169 3.0 6.0 0.00 0.00 0.00 58 1014.8
20260502225025 55 169 4.0 4.0 0.00 0.00 0.00 59 1015.1
20260502224526 54 173 4.0 6.0 0.00 0.00 0.00 58 1014.9
20260502224004 55 176 4.0 6.0 0.00 0.00 0.00 58 1014.9
20260502223525 55 176 4.0 6.0 0.00 0.00 0.00 57 1015.1
20260502223004 55 174 4.0 6.0 0.00 0.00 0.00 57 1014.9
20260502222504 55 175 4.0 6.0 0.00 0.00 0.00 57 1015.1
20260502222025 54 178 4.0 4.0 0.00 0.00 0.00 58 1015.1
20260502221505 55 178 4.0 4.0 0.00 0.00 0.00 59 1014.9
20260502221004 55 179 3.0 4.0 0.00 0.00 0.00 58 1015.3
20260502220505 54 180 3.0 4.0 0.00 0.00 0.00 60 1015.2
20260502220026 54 180 3.0 4.0 0.00 0.00 0.00 61 1015.4
20260502215504 53 181 3.0 4.0 0.00 0.00 0.00 63 1015.4
20260502215005 51 180 3.0 4.0 0.00 0.00 0.00 68 1015.3
20260502214504 50 177 2.0 3.0 0.00 0.00 0.00 70 1015.6
20260502214025 50 176 2.0 3.0 0.00 0.00 0.00 70 1015.4
20260502213504 50 170 2.0 3.0 0.00 0.00 0.00 71 1015.5
20260502213005 50 150 2.0 3.0 0.00 0.00 0.00 72 1015.5
20260502212505 50 99 1.0 3.0 0.00 0.00 0.00 72 1015.7
20260502212004 50 60 1.0 2.0 0.00 0.00 0.00 71 1015.6
20260502211504 50 59 1.0 2.0 0.00 0.00 0.00 70 1015.7
20260502211005 51 58 0.0 2.0 0.00 0.00 0.00 71 1015.6
20260502210525 51 58 0.0 2.0 0.00 0.00 0.00 70 1015.6
20260502210025 51 58 1.0 2.0 0.00 0.00 0.00 69 1015.7
20260502205504 51 52 1.0 2.0 0.00 0.00 0.00 69 1015.7
20260502205004 51 42 0.0 2.0 0.00 0.00 0.00 69 1015.6
20260502204505 52 31 0.0 1.0 0.00 0.00 0.00 69 1015.8
20260502204004 52 31 0.0 2.0 0.00 0.00 0.00 68 1015.8
20260502203504 53 31 0.0 2.0 0.00 0.00 0.00 67 1015.7
20260502203004 53 31 1.0 1.0 0.00 0.00 0.00 67 1015.7
20260502202503 53 31 0.0 1.0 0.00 0.00 0.00 67 1015.7
20260502202004 53 31 0.0 1.0 0.00 0.00 0.00 67 1015.9
20260502201524 53 0 0.0 0.0 0.00 0.00 0.00 67 1015.8
20260502201025 53 0 0.0 0.0 0.00 0.00 0.00 65 1015.9
20260502200525 54 0 0.0 0.0 0.00 0.00 0.00 65 1015.8
20260502200005 55 0 0.0 0.0 0.00 0.00 0.00 62 1015.9
20260502195503 55 0 0.0 0.0 0.00 0.00 0.00 62 1015.8
20260502195025 55 0 0.0 0.0 0.00 0.00 0.00 61 1015.9
20260502194505 56 0 0.0 0.0 0.00 0.00 0.00 62 1016.0
20260502194005 56 0 0.0 0.0 0.00 0.00 0.00 59 1015.8
20260502193504 57 0 0.0 0.0 0.00 0.00 0.00 60 1015.9
20260502193004 58 31 0.0 1.0 0.00 0.00 0.00 57 1015.9
20260502192504 58 31 0.0 1.0 0.00 0.00 0.00 56 1016.0
20260502192025 58 0 0.0 0.0 0.00 0.00 0.00 56 1015.9
20260502191525 59 0 0.0 0.0 0.00 0.00 0.00 55 1016.1
20260502191004 59 32 0.0 1.0 0.00 0.00 0.00 55 1016.0
20260502190503 59 31 0.0 2.0 0.00 0.00 0.00 54 1016.0
20260502190026 59 31 1.0 2.0 0.00 0.00 0.00 53 1015.9
20260502185504 60 31 0.0 2.0 0.00 0.00 0.00 52 1015.9
20260502185004 62 20 0.0 1.0 0.00 0.00 0.00 51 1015.9
20260502184505 63 20 0.0 1.0 0.00 0.00 0.00 49 1016.0
20260502184004 63 0 0.0 0.0 0.00 0.00 0.00 46 1016.1
20260502183504 63 0 0.0 0.0 0.00 0.00 0.00 47 1016.0
20260502183004 64 0 0.0 0.0 0.00 0.00 0.00 46 1016.1
20260502182505 65 0 0.0 0.0 0.00 0.00 0.00 44 1016.0
20260502182004 66 0 0.0 0.0 0.00 0.00 0.00 43 1015.8
20260502181504 66 20 0.0 1.0 0.00 0.00 0.00 42 1016.1
20260502181005 67 20 1.0 1.0 0.00 0.00 0.00 42 1016.0
20260502180504 66 21 0.0 1.0 0.00 0.00 0.00 42 1016.0
20260502164004 71 28 1.0 2.0 0.00 0.00 0.00 37 1016.7
20260502163503 72 33 0.0 2.0 0.00 0.00 0.00 35 1016.7
20260502163003 72 33 0.0 2.0 0.00 0.00 0.00 35 1016.8
20260502162503 72 23 1.0 3.0 0.00 0.00 0.00 35 1016.6
20260502162004 72 16 1.0 3.0 0.00 0.00 0.00 34 1016.8
20260502161505 72 12 1.0 3.0 0.00 0.00 0.00 35 1016.8
20260502161026 72 4 1.0 3.0 0.00 0.00 0.00 34 1016.8
20260502160505 72 359 1.0 4.0 0.00 0.00 0.00 34 1017.0
20260502152005 74 340 1.0 4.0 0.00 0.00 0.00 32 1017.6
20260502151503 74 329 1.0 4.0 0.00 0.00 0.00 34 1017.5
20260502151005 74 322 1.0 6.0 0.00 0.00 0.00 33 1017.8
20260502150505 74 314 1.0 6.0 0.00 0.00 0.00 33 1017.5
20260502130505 80 172 3.0 8.0 0.00 0.00 0.00 23 1019.0
20260502123525 81 176 2.0 7.0 0.00 0.00 0.00 24 1019.4
20260502123004 80 174 2.0 7.0 0.00 0.00 0.00 24 1019.5
20260502122503 80 181 2.0 6.0 0.00 0.00 0.00 26 1019.6
20260502122004 80 174 2.0 7.0 0.00 0.00 0.00 25 1019.7
20260502121504 79 201 2.0 7.0 0.00 0.00 0.00 27 1019.8
20260502121024 78 261 2.0 7.0 0.00 0.00 0.00 27 1019.8
20260502120504 78 184 2.0 7.0 0.00 0.00 0.00 30 1019.9
20260502115503 79 198 2.0 7.0 0.00 0.00 0.00 27 1020.2
20260502115003 78 187 2.0 7.0 0.00 0.00 0.00 28 1020.2
20260502114504 76 2 2.0 7.0 0.00 0.00 0.00 27 1020.4
20260502114003 77 128 1.0 4.0 0.00 0.00 0.00 27 1020.4
20260502113525 78 159 1.0 6.0 0.00 0.00 0.00 26 1020.5
20260502113025 79 178 2.0 6.0 0.00 0.00 0.00 26 1020.6
20260502112503 78 187 2.0 6.0 0.00 0.00 0.00 28 1020.7
20260502112004 77 217 1.0 4.0 0.00 0.00 0.00 29 1020.6
20260502111504 77 188 2.0 6.0 0.00 0.00 0.00 28 1020.7
20260502111003 77 193 2.0 6.0 0.00 0.00 0.00 28 1020.8
20260502110504 77 212 2.0 4.0 0.00 0.00 0.00 29 1020.9
20260502110004 77 183 2.0 6.0 0.00 0.00 0.00 27 1021.0
20260502105504 77 171 2.0 6.0 0.00 0.00 0.00 27 1020.9
20260502105025 78 193 2.0 6.0 0.00 0.00 0.00 26 1021.1
20260502104503 76 255 2.0 6.0 0.00 0.00 0.00 29 1021.1
20260502104004 75 190 3.0 7.0 0.00 0.00 0.00 30 1021.1
20260502103525 75 167 3.0 7.0 0.00 0.00 0.00 30 1021.1
20260502103003 77 159 2.0 7.0 0.00 0.00 0.00 27 1021.3
20260502102503 76 155 4.0 10.0 0.00 0.00 0.00 29 1021.3
20260502102004 76 162 4.0 10.0 0.00 0.00 0.00 28 1021.4
20260502101504 76 177 3.0 7.0 0.00 0.00 0.00 29 1021.4
20260502101004 75 173 3.0 8.0 0.00 0.00 0.00 28 1021.5
20260502100503 76 178 3.0 8.0 0.00 0.00 0.00 28 1021.7
20260502091504 75 192 2.0 7.0 0.00 0.00 0.00 28 1022.2
20260502091004 74 198 2.0 7.0 0.00 0.00 0.00 27 1022.2
20260502090524 74 196 2.0 4.0 0.00 0.00 0.00 29 1022.2
20260502071505 64 158 2.0 6.0 0.00 0.00 0.00 46 1023.1
20260502071005 63 158 2.0 4.0 0.00 0.00 0.00 47 1023.1
20260502070505 62 155 3.0 7.0 0.00 0.00 0.00 49 1023.2
20260502070026 62 156 3.0 7.0 0.00 0.00 0.00 49 1023.2
20260502065504 61 163 3.0 6.0 0.00 0.00 0.00 51 1023.1
20260502065005 61 166 3.0 6.0 0.00 0.00 0.00 50 1023.0
20260502064505 60 167 2.0 4.0 0.00 0.00 0.00 53 1023.2
20260502064027 60 168 2.0 4.0 0.00 0.00 0.00 54 1023.2
20260502063505 59 166 2.0 4.0 0.00 0.00 0.00 54 1023.2
20260502063005 59 166 2.0 4.0 0.00 0.00 0.00 54 1023.3
20260502062525 58 170 2.0 4.0 0.00 0.00 0.00 54 1023.3
20260502062005 58 177 2.0 4.0 0.00 0.00 0.00 54 1023.3
20260502061005 57 171 3.0 6.0 0.00 0.00 0.00 56 1023.2
20260502060505 56 174 3.0 6.0 0.00 0.00 0.00 56 1023.2
20260502060005 55 175 3.0 6.0 0.00 0.00 0.00 57 1023.3
20260502055504 55 173 3.0 4.0 0.00 0.00 0.00 58 1023.3
20260502055006 54 173 3.0 6.0 0.00 0.00 0.00 58 1023.3
20260502054505 54 173 3.0 6.0 0.00 0.00 0.00 58 1023.1
20260502054004 54 174 3.0 6.0 0.00 0.00 0.00 59 1023.3
20260502053504 53 174 3.0 6.0 0.00 0.00 0.00 61 1023.4
20260502053005 52 173 3.0 6.0 0.00 0.00 0.00 61 1023.2
20260502052505 51 175 3.0 6.0 0.00 0.00 0.00 62 1023.3
20260502052005 51 180 4.0 6.0 0.00 0.00 0.00 63 1023.4
20260502051504 50 194 3.0 6.0 0.00 0.00 0.00 64 1023.4
20260502051025 49 208 3.0 6.0 0.00 0.00 0.00 66 1023.5
20260502050505 47 218 2.0 6.0 0.00 0.00 0.00 69 1023.2
20260502050005 47 226 3.0 6.0 0.00 0.00 0.00 69 1023.4
20260502045504 46 228 3.0 4.0 0.00 0.00 0.00 71 1023.3
20260502045004 46 228 2.0 4.0 0.00 0.00 0.00 72 1023.5
20260502044505 45 228 2.0 4.0 0.00 0.00 0.00 72 1023.3
20260502044004 44 228 2.0 3.0 0.00 0.00 0.00 73 1023.3
20260502043504 43 228 2.0 3.0 0.00 0.00 0.00 75 1023.2
20260502043005 41 228 2.0 3.0 0.00 0.00 0.00 79 1023.3
20260502042505 40 228 2.0 3.0 0.00 0.00 0.00 81 1023.5
20260502042005 40 228 2.0 2.0 0.00 0.00 0.00 80 1023.3
20260502041526 40 228 2.0 3.0 0.00 0.00 0.00 78 1023.3
20260502041005 40 228 2.0 3.0 0.00 0.00 0.00 78 1023.4
20260502040504 39 228 2.0 3.0 0.00 0.00 0.00 78 1023.3
20260502040005 39 228 2.0 3.0 0.00 0.00 0.00 79 1023.4
20260502035504 38 228 2.0 3.0 0.00 0.00 0.00 80 1023.4
20260502035005 38 228 2.0 3.0 0.00 0.00 0.00 80 1023.3
20260502034504 38 228 3.0 3.0 0.00 0.00 0.00 80 1023.3
20260502034004 38 228 2.0 3.0 0.00 0.00 0.00 80 1023.4
20260502033505 37 228 1.0 2.0 0.00 0.00 0.00 80 1023.5
20260502033005 37 228 1.0 2.0 0.00 0.00 0.00 80 1023.5
20260502032525 37 228 1.0 3.0 0.00 0.00 0.00 80 1023.4
20260502032025 37 228 2.0 3.0 0.00 0.00 0.00 79 1023.4
20260502031504 37 228 2.0 4.0 0.00 0.00 0.00 80 1023.5
20260502031004 37 228 2.0 4.0 0.00 0.00 0.00 79 1023.5
20260502030504 38 228 2.0 3.0 0.00 0.00 0.00 77 1023.4
20260502030005 39 228 1.0 3.0 0.00 0.00 0.00 76 1023.5
20260502025505 39 228 1.0 3.0 0.00 0.00 0.00 75 1023.5
20260502025025 39 228 1.0 3.0 0.00 0.00 0.00 76 1023.5
20260502024504 39 228 1.0 2.0 0.00 0.00 0.00 76 1023.5
20260502024004 39 228 1.0 2.0 0.00 0.00 0.00 76 1023.7
20260502023504 38 228 1.0 2.0 0.00 0.00 0.00 76 1023.6
20260502023005 38 228 1.0 2.0 0.00 0.00 0.00 76 1023.6
20260502022505 38 228 0.0 1.0 0.00 0.00 0.00 77 1023.7
20260502022005 38 228 1.0 1.0 0.00 0.00 0.00 75 1023.6
20260502021504 39 228 1.0 2.0 0.00 0.00 0.00 75 1023.8
20260502021005 39 228 1.0 2.0 0.00 0.00 0.00 74 1023.7
20260502020505 40 228 1.0 2.0 0.00 0.00 0.00 73 1023.8
20260502020005 40 228 1.0 1.0 0.00 0.00 0.00 73 1023.8
20260502015505 40 228 1.0 2.0 0.00 0.00 0.00 72 1023.9
20260502015025 40 228 1.0 3.0 0.00 0.00 0.00 72 1023.7
20260502014505 40 228 1.0 3.0 0.00 0.00 0.00 72 1023.7
20260502014004 41 228 1.0 2.0 0.00 0.00 0.00 71 1023.8